This demonstration page uses our WeatherBlox Daily Observations layout. Learn more.

Left ArrowRight Arrow

39.51506, -84.39828

Hourly Observations for November 7, 2020

Temp ( °F °C ) Dew Point ( °F °C ) Humidity (%) Winds ( mph kmh ) Pressure ( in mb ) Visibility ( mi km ) Precip ( " mm )
12:15 am 00:15 Clear 41 5.1 41 5 99 99 Calm 30.3 1026 10 16.0934 0 0
12:35 am 00:35 Clear 40 4.7 40 4.5 99 99 Calm 30.3 1026 10 16.0934 0 0
12:55 am 00:55 Clear 39 4 41 5 100 100 Calm 30.29 1026 7 11.26538 0 0
1:15 am 01:15 Clear with Mist and Fog 39 4 39 4 100 100 Calm 30.29 1026 7 11.26538 0 0
1:35 am 01:35 Hazy 39 4 N/A N/A Calm 30.29 1026 4 6.43736 0 0
1:55 am 01:55 Clear with Mist and Fog 39 4 N/A N/A Calm 30.29 1026 3.5 5.63269 0 0
2:15 am 02:15 Mostly Cloudy with Mist and Fog 39 4 N/A N/A Calm 30.29 1026 1.75 2.816345 0 0
2:35 am 02:35 Hazy 39 4 N/A N/A Calm 30.3 1026 7 11.26538 0 0
2:55 am 02:55 Hazy 39 4 N/A N/A Calm 30.3 1026 5 8.0467 0 0
3:15 am 03:15 Hazy 39 4 N/A N/A Calm 30.31 1027 5 8.0467 0 0
3:35 am 03:35 Clear with Mist and Fog 37 3 N/A N/A Calm 30.32 1027 3 4.82802 0 0
3:55 am 03:55 Hazy 37 3 N/A N/A Calm 30.32 1027 5 8.0467 0 0
4:15 am 04:15 Hazy 37 3 N/A N/A Calm 30.32 1027 5 8.0467 0 0
4:35 am 04:35 Mostly Cloudy with Mist and Fog 37 3 N/A N/A Calm 30.32 1027 1.25 2.011675 0 0
4:55 am 04:55 Hazy 37 3 N/A N/A Calm 30.32 1027 5 8.0467 0 0
5:15 am 05:15 Mostly Cloudy with Fog 36 2 N/A N/A Calm 30.32 1027 0.5 0.80467 0 0
5:35 am 05:35 Mostly Cloudy with Fog 36 2 N/A N/A Calm 30.32 1027 0.5 0.80467 0 0
5:55 am 05:55 Mostly Cloudy with Mist and Fog 36 2 N/A N/A Calm 30.32 1027 1.5 2.41401 0 0
6:15 am 06:15 Mostly Cloudy with Mist and Fog 36 2 N/A N/A Calm 30.33 1027 1.75 2.816345 0 0
6:35 am 06:35 Clear with Mist and Fog 37 3 N/A N/A Calm 30.33 1027 2 3.21868 0 0
6:55 am 06:55 Clear with Mist and Fog 36 2 N/A N/A Calm 30.35 1028 3 4.82802 0 0
7:15 am 07:15 Mostly Cloudy with Mist and Fog 36 2 N/A N/A Calm 30.35 1028 1.75 2.816345 0 0
7:35 am 07:35 Mostly Cloudy with Mist and Fog 36 2 N/A N/A Calm 30.35 1028 1.75 2.816345 0 0
7:55 am 07:55 Mostly Cloudy with Mist and Fog 36 2 N/A N/A Calm 30.36 1028 1.75 2.816345 0 0
8:15 am 08:15 Sunny with Mist and Fog 37 3 N/A N/A Calm 30.36 1028 3 4.82802 0 0
8:35 am 08:35 Sunny with Mist and Fog 41 5 N/A N/A Calm 30.35 1028 3 4.82802 0 0
8:55 am 08:55 Sunny with Mist and Fog 44 6.6 44 6.4 99 99 Calm 30.35 1028 5 8.0467 0 0
9:15 am 09:15 Sunny with Mist and Fog 46 8 44 6.8 92 92 Calm 30.34 1028 5 8.0467 0 0
9:35 am 09:35 Sunny with Mist and Fog 49 9.3 46 7.6 89 89 Calm 30.35 1028 7 11.26538 0 0
9:55 am 09:55 Hazy 52 11.1 46 7.9 81 81 Calm 30.35 1028 7 11.26538 0 0
10:15 am 10:15 Hazy 54 12.1 47 8.1 77 77 Calm 30.34 1028 7 11.26538 0 0
10:35 am 10:35 Sunny 57 13.8 47 8.1 69 69 Calm 30.34 1027 7 11.26538 0 0
10:55 am 10:55 Sunny 59 15.2 48 8.7 65 65 Calm 30.34 1027 7 11.26538 0 0
11:15 am 11:15 Sunny 62 16.5 47 8.5 59 59 Calm 30.32 1027 10 16.0934 0 0
11:35 am 11:35 Sunny 64 17.8 47 8.6 55 55 Calm 30.31 1026 10 16.0934 0 0
11:55 am 11:55 Sunny 65 18.6 48 8.8 53 53 WSW 3 6 30.3 1026 10 16.0934 0 0
12:15 pm 12:15 Sunny 67 19.4 47 8.2 48 48 W 3 6 30.28 1025 10 16.0934 0 0
12:35 pm 12:35 Sunny 68 20.1 46 7.8 45 45 SW 3 6 30.27 1025 10 16.0934 0 0
12:55 pm 12:55 Sunny 69 20.8 45 7.1 41 41 W 5 7 30.25 1024 10 16.0934 0 0
1:15 pm 13:15 Sunny 70 21.3 44 6.7 39 39 W 7 11 30.25 1024 10 16.0934 0 0
1:35 pm 13:35 Sunny 71 21.6 44 6.9 39 39 W 6 9 30.24 1024 10 16.0934 0 0
1:55 pm 13:55 Sunny 72 22.1 45 7.4 39 39 W 6 9 30.24 1024 10 16.0934 0 0
2:15 pm 14:15 Sunny 72 22 44 6.6 37 37 WSW 6 9 30.23 1024 10 16.0934 0 0
2:35 pm 14:35 Sunny 72 22.3 44 6.8 37 37 W 6 9 30.23 1024 10 16.0934 0 0
2:55 pm 14:55 Sunny 72 22.3 44 6.7 37 37 W 7 11 30.22 1023 10 16.0934 0 0
3:15 pm 15:15 Sunny 72 22.4 44 6.7 36 36 WSW 9 15 30.22 1023 10 16.0934 0 0
3:35 pm 15:35 Sunny 72 22.4 45 7 37 37 SW 8 13 30.22 1023 10 16.0934 0 0
3:55 pm 15:55 Sunny 72 22.2 44 6.7 37 37 SW 3 6 30.23 1024 10 16.0934 0 0
4:15 pm 16:15 Sunny 71 21.9 44 6.7 37 37 WSW 3 6 30.22 1023 10 16.0934 0 0
4:35 pm 16:35 Sunny 70 21.1 44 6.7 39 39 WSW 5 7 30.22 1023 10 16.0934 0 0
4:55 pm 16:55 Sunny 68 20.1 44 6.8 42 42 WSW 3 6 30.22 1024 10 16.0934 0 0
5:15 pm 17:15 Sunny 66 18.8 44 6.6 45 45 Calm 30.23 1024 10 16.0934 0 0
5:35 pm 17:35 Clear 62 16.5 47 8.3 59 59 Calm 30.23 1024 10 16.0934 0 0
5:55 pm 17:55 Clear 57 13.7 47 8.3 70 70 Calm 30.25 1024 10 16.0934 0 0
6:15 pm 18:15 Hazy 55 12.6 46 8 74 74 Calm 30.25 1024 5 8.0467 0 0
6:35 pm 18:35 Clear 52 11.3 47 8.4 83 83 Calm 30.26 1025 7 11.26538 0 0
6:55 pm 18:55 Hazy 50 10.2 46 7.9 86 86 Calm 30.27 1025 5 8.0467 0 0
7:15 pm 19:15 Clear 51 10.7 46 7.8 82 82 Calm 30.27 1025 10 16.0934 0 0
7:35 pm 19:35 Clear 51 10.4 47 8.3 87 87 Calm 30.26 1025 10 16.0934 0 0
7:55 pm 19:55 Clear 50 9.8 47 8.1 89 89 Calm 30.26 1025 10 16.0934 0 0
8:15 pm 20:15 Clear 49 9.2 45 7.3 88 88 Calm 30.26 1025 10 16.0934 0 0
8:35 pm 20:35 Clear 48 9 44 6.8 86 86 Calm 30.26 1025 10 16.0934 0 0
8:55 pm 20:55 Clear 48 8.8 44 6.7 87 87 Calm 30.27 1025 10 16.0934 0 0
9:15 pm 21:15 Clear 46 8 45 7 93 93 Calm 30.27 1025 10 16.0934 0 0
9:35 pm 21:35 Clear 46 7.9 43 6.3 90 90 Calm 30.27 1025 10 16.0934 0 0
9:55 pm 21:55 Clear 46 7.9 44 6.6 92 92 Calm 30.27 1025 10 16.0934 0 0
10:15 pm 22:15 Clear 44 6.9 43 6.2 95 95 Calm 30.29 1026 10 16.0934 0 0
10:35 pm 22:35 Clear 44 6.9 43 6.1 95 95 Calm 30.29 1026 10 16.0934 0 0
10:55 pm 22:55 Clear 45 7 43 6.1 94 94 Calm 30.29 1026 10 16.0934 0 0
11:15 pm 23:15 Clear 44 6.8 43 6.2 96 96 Calm 30.29 1026 10 16.0934 0 0
11:35 pm 23:35 Clear with Mist and Fog 44 6.9 44 6.5 97 97 Calm 30.29 1026 7 11.26538 0 0
11:55 pm 23:55 Clear 43 6.2 42 5.5 95 95 Calm 30.29 1026 7 11.26538 0 0

Powered by AerisWeather